Weather History for Santa Maria, CA

Change the Weather History Date:

Wednesday, September 25, 2013

  Actual Average Record
Temperature  
Mean Temperature 59 °F 63 °F  
Max Temperature 71 °F 74 °F 99 °F (1968)
Min Temperature 47 °F 52 °F 38 °F (1948)
Degree Days  
Heating Degree Days 6 3  
Month to date heating degree days 15 65  
Since 1 July heating degree days 65 201  
Cooling Degree Days 0 1  
Month to date cooling degree days 55 25  
Year to date cooling degree days 180 80  
Growing Degree Days 8 (Base 50)    
Moisture  
Dew Point 48 °F    
Average Humidity 67    
Maximum Humidity 93    
Minimum Humidity 41    
Precipitation  
Precipitation 0.00 in 0.00 in 0.29 in (1939)
Month to date precipitation T 0.10  
Year to date precipitation 2.50 9.86  
Since 1 July precipitation 0.01 0.15  
Sea Level Pressure  
Sea Level Pressure 29.85 in    
Wind  
Wind Speed 13 mph (WNW)    
Max Wind Speed 33 mph    
Max Gust Speed 41 mph    
Visibility 7 miles    
Events      
T = Trace of Precipitation, MM = Missing Value Source: NWS Daily Summary

Daily Weather History Graph

Daily Weather History Graph

Search for Another Location

Airport:

Trip Planner

Search our weather history database for the weather conditions in past years. The results will help you decide how hot, cold, wet, or windy it might be!

Date:

Astronomy

Sep. 25, 2013 Rise Set
Actual Time 6:52 AM PDT 6:53 PM PDT
Civil Twilight 6:27 AM PDT 7:18 PM PDT
Nautical Twilight 5:57 AM PDT 7:48 PM PDT
Astronomical Twilight 5:27 AM PDT 8:17 PM PDT
Moon 11:16 PM PDT (9/25) 12:49 PM PDT (9/25)
Length of Visible Light 12h 51m
Length of Day
12h 01m
Waning Gibbous, 63% of the Moon is Illuminated
Sep 25
Waning Gibbous
Sep 26
Last Quarter
Oct 4
New
Oct 11
First Quarter
Oct 18
Full

Hourly Weather History & Observations

Time (PDT) Temp. Dew Point Humidity Pressure Visibility Wind Dir Wind Speed Gust Speed Precip Events Conditions
12:51 AM 55.9 °F 50.0 °F 80% 29.89 in 9.0 mi Calm Calm - N/A   Clear
1:51 AM 52.0 °F 48.0 °F 86% 29.89 in 8.0 mi SSE 4.6 mph - N/A   Clear
2:51 AM 52.0 °F 48.0 °F 86% 29.89 in 5.0 mi Calm Calm - N/A   Clear
3:51 AM 53.1 °F 48.9 °F 86% 29.88 in 7.0 mi Calm Calm - N/A   Clear
4:51 AM 50.0 °F 48.0 °F 93% 29.88 in 6.0 mi Calm Calm - N/A   Clear
5:12 AM 48.2 °F 46.4 °F 93% 29.88 in 5.0 mi West 4.6 mph - N/A   Scattered Clouds
5:16 AM 48.2 °F 46.4 °F 93% 29.88 in 2.5 mi West 3.5 mph - N/A   Mostly Cloudy
5:30 AM 48.2 °F 46.4 °F 93% 29.88 in 5.0 mi West 3.5 mph - N/A   Scattered Clouds
5:40 AM 48.2 °F 46.4 °F 93% 29.87 in 2.5 mi Calm Calm - N/A   Mostly Cloudy
5:51 AM 50.0 °F 48.0 °F 93% 29.88 in 1.8 mi Calm Calm - N/A   Mostly Cloudy
6:23 AM 51.8 °F 48.2 °F 88% 29.87 in 4.0 mi Calm Calm - N/A   Scattered Clouds
6:51 AM 50.0 °F 48.0 °F 93% 29.89 in 6.0 mi Calm Calm - N/A   Partly Cloudy
7:51 AM 54.0 °F 51.1 °F 90% 29.90 in 7.0 mi West 3.5 mph - N/A   Clear
8:51 AM 62.1 °F 50.0 °F 65% 29.90 in 9.0 mi WNW 9.2 mph - N/A   Clear
9:51 AM 66.0 °F 48.0 °F 52% 29.90 in 10.0 mi WNW 15.0 mph - N/A   Clear
10:51 AM 71.1 °F 46.0 °F 41% 29.88 in 10.0 mi WNW 16.1 mph - N/A   Clear
11:51 AM 70.0 °F 48.9 °F 47% 29.87 in 10.0 mi WNW 24.2 mph - N/A   Clear
12:51 PM 69.1 °F 48.9 °F 49% 29.85 in 8.0 mi WNW 29.9 mph 33.4 mph N/A   Clear
1:51 PM 69.1 °F 48.9 °F 49% 29.83 in 7.0 mi WNW 29.9 mph 36.8 mph N/A   Clear
2:51 PM 68.0 °F 48.0 °F 49% 29.80 in 5.0 mi WNW 29.9 mph 39.1 mph N/A   Haze
3:51 PM 68.0 °F 46.0 °F 45% 29.79 in 5.0 mi WNW 26.5 mph 39.1 mph N/A   Haze
4:51 PM 64.9 °F 48.0 °F 54% 29.78 in 8.0 mi WNW 23.0 mph 34.5 mph N/A   Clear
5:51 PM 62.1 °F 48.0 °F 60% 29.78 in 7.0 mi West 20.7 mph 32.2 mph N/A   Clear
6:51 PM 57.9 °F 48.0 °F 70% 29.79 in 9.0 mi West 20.7 mph 28.8 mph N/A   Clear
7:51 PM 57.0 °F 48.9 °F 74% 29.79 in 10.0 mi WNW 17.3 mph - N/A   Clear
8:51 PM 55.9 °F 48.9 °F 77% 29.80 in 9.0 mi WNW 12.7 mph - N/A   Clear
9:51 PM 55.0 °F 48.9 °F 80% 29.81 in 9.0 mi WNW 11.5 mph - N/A   Clear
10:51 PM 54.0 °F 48.9 °F 83% 29.82 in 8.0 mi WNW 10.4 mph - N/A   Clear
11:51 PM 54.0 °F 48.0 °F 80% 29.82 in 9.0 mi WNW 9.2 mph - N/A   Clear